Other Public Products
Issued by NWS Grand Forks, ND

Home | Current Version | Previous Version | Graphics & Text | Print | Product List | Glossary On
Versions: 1 2 3 4 5 6 7 8 9 10 11 12 13 14 15 16 17 18 19 20 21 22 23 24 25 26 27 28 29 30 31 32 33 34 35 36 37 38 39 40 41 42 43 44 45 46 47 48 49 50
000
FPUS83 KFGF 311010
OPUFGF
PRAIRIE TO PINES WEATHER ROUNDUP
NATIONAL WEATHER SERVICE EASTERN NORTH DAKOTA/GRAND FORKS ND
500 AM CDT MON AUG 31 2015

 **SATELLITE DATA USED TO AUGMENT SKY COVER AT AUTOMATED STATIONS**
 *****  WEATHER ACROSS EASTERN NORTH DAKOTA  *****

CITY           SKY/WX    TMP DP  RH WIND       PRES   REMARKS
GRAND FORKS    PTCLDY    66  62  87 S10       29.64S
GRAND FORKS AF PTCLDY    65  64  94 S7        29.64S
GRAND CITY NWS   N/A     64 N/A N/A S10         N/A
BUXTON         NOT AVBL
DEVILS LAKE    CLOUDY    68  63  83 E10       29.59F
FARGO          CLEAR     67  59  75 S15       29.67F
WAHPETON ARPT  SUNNY     63  57  82 SE13G20   29.72F
$$

 *****  WEATHER ACROSS CENTRAL AND WESTERN NORTH DAKOTA  *****

CITY           SKY/WX    TMP DP  RH WIND       PRES   REMARKS
JAMESTOWN      MOCLDY    67  63  87 S16       29.64R
BISMARCK       CLOUDY    70  60  70 N7        29.65R HAZE
MINOT          TSTM      66  55  67 W15       29.73R
MINOT AFB      TSTM      63  61  94 NW8       29.70R
GARRISON         N/A     63  57  81 N8        29.70R
WILLISTON        N/A    N/A N/A N/A MISG      29.77R
DICKINSON      MOCLDY    62  56  80 NW8       29.76R
HETTINGER      MOCLDY    64  49  57 N9        29.75F
$$

 *****  OTHER OBSERVATIONS NORTHEAST NORTH DAKOTA  *****

CITY           SKY/WX    TMP DP  RH WIND       PRES   REMARKS
WALHALLA       FAIR      66  66 100 MISG      29.62F
LANGDON        FAIR      66  64  94 CALM      29.65F
CAVALIER       FAIR      68  66  94 S5        29.62S
GRAFTON        FAIR      68  68 100 S10       29.63R
CANDO          NOT AVBL
FORT TOTTEN      N/A     69  68  97 E5        29.95S
ROLLA          FAIR      63  57  82 N8        29.65F
RUGBY          FAIR      63  59  88 N7        29.63S
 ***** THE ABOVE OBSERVATIONS ARE NON NWS ARE NOT QUALITY
        CONTROLLED AND MAY MIS-REPORT RAIN FOR SNOW...
$$

 *****  OTHER OBSERVATIONS SOUTHEAST NORTH DAKOTA *****

CITY           SKY/WX    TMP DP  RH WIND       PRES   REMARKS
COOPERSTOWN    NOT AVBL
VALLEY CITY    FAIR      68  68 100 S14G21    29.65S
OAKES            N/A     68  68 100 S22G31    29.67F
GWINNER        FAIR      72  61  68 S17G23    29.67F
SHEYENNE NWR     N/A     60  58  94 SE7       29.95S
BUFFALO        NOT AVBL
WYNDMERE         N/A     61  61 100 SE5         N/A
 ***** THE ABOVE OBSERVATIONS ARE NON NWS ARE NOT QUALITY
       CONTROLLED AND MAY MIS-REPORT RAIN FOR SNOW...
$$

  *****  WEATHER ACROSS NORTHERN MINNESOTA  *****

CITY           SKY/WX    TMP DP  RH WIND       PRES   REMARKS
FLAG ISLAND    CLEAR     70  64  83 S12       29.66F
WARROAD        CLEAR     68  63  83 S6        29.68S
ROSEAU         CLEAR     68  61  77 S12       29.66F
HALLOCK        PTCLDY    68  64  88 S14       29.63R
THF RVR FALLS  CLEAR    N/A N/A N/A S7        29.68S
HALSTAD        NOT AVBL
FOSSTON        CLEAR     64  55  72 S10       29.72S
BAUDETTE       PTCLDY    66  60  81 S8        29.70F
WASKISH        CLEAR     66  61  82 S8        29.72F
CROOKSTON      PTCLDY    66  61  82 S14       29.68S
$$
  *****  WEATHER ACROSS CENTRAL AND WEST MINNESOTA  *****

CITY           SKY/WX    TMP DP  RH WIND       PRES   REMARKS
BEMIDJI        CLEAR     64  59  83 S10       29.76F
PARK RAPIDS    CLEAR     64  60  87 S13       29.79F
WADENA         CLEAR     63  61  94 S5        29.81S FOG
DETROIT LAKES  CLEAR     66  59  77 S13       29.76F
MOORHEAD       CLEAR     66  61  82 S16G22    29.70F
FERGUS FALLS   CLEAR     66  59  77 S17       29.75F
ELBOW LAKE     FAIR      64  61  89 S16       29.78S
MORRIS MN      PTCLDY    63  63 100 SE10      29.79F FOG
STAPLES        CLEAR     63  61  94 S10       29.82F
WHEATON        CLEAR     63  59  88 SE10G18   29.76S
$$
  *****  WEATHER ELSEWHERE ACROSS MINNESOTA  *****

CITY           SKY/WX    TMP DP  RH WIND       PRES   REMARKS
DULUTH         PTCLDY    64  62  93 S8        29.89S
INTRNTL FALLS  PTCLDY    65  62  90 VRB5      29.75F
ELY            CLEAR     64  61  88 SW7       29.86S
CLOQUET        CLOUDY    64  63  94 S9        29.89S
BRAINERD       PTCLDY    63  62  97 S9        29.85S FOG
HIBBING        CLOUDY    64  63  96 VRB5      29.86S
ALEXANDRIA     CLEAR     65  62  90 S12       29.84F
SAINT CLOUD    PTCLDY    64  64 100 S9        29.88S FOG
MINNEAPOLIS    MOCLDY    63  62  97 SE7       29.93S
$$

  *****  WEATHER ACROSS SOUTH DAKOTA  *****

CITY           SKY/WX    TMP DP  RH WIND       PRES   REMARKS
SIOUX FALLS    PTCLDY    65  63  93 S10       29.89S
BROOKINGS      CLEAR     64  61  88 S10G16    29.89R
WATERTOWN      CLEAR     64  61  90 S14       29.81F
HURON          CLEAR     66  63  90 S12       29.77S
SISSETON         N/A     73  59  61 SW23G35   29.69F
ABERDEEN       CLEAR     67  62  84 S15G26    29.70F
MITCHELL       CLEAR     65  63  93 SE9       29.82F
PIERRE         MOCLDY    71  57  61 SE10      29.67F
MOBRIDGE       CLOUDY    74  57  55 VRB7      29.64R
RAPID CITY     CLOUDY    74  51  44 W10       29.77F
$$

  *****  SOME WEATHER IN NEARBY STATES *****

CITY           SKY/WX    TMP DP  RH WIND       PRES   REMARKS
GLASGOW MT     PTCLDY    54  51  90 W9        29.81R
GREAT FALLS MT FAIR      52  33  48 SW20      29.90F
CHEYENNE WY    CLOUDY    70  46  42 W24G32    30.08R
SCOTTSBLUFF NE CLOUDY    68  56  65 N6        29.92R
OMAHA NE       PTCLDY    66  65  96 S5        29.94F
DES MOINES IA  PTCLDY    69  65  86 SE6       29.97F
DAVENPORT IA   CLEAR     61  60  97 E5        30.03R FOG
CHICAGO IL     FOG       62  62 100 CALM      30.04R VSB 1/4
EAU CLAIRE WI  CLEAR     59  58  96 S3        29.97S FOG
LA CROSSE WI   CLOUDY    65  63  93 SE8       29.99S
$$

  *****  SOME NATIONAL WEATHER *****

CITY           SKY/WX    TMP DP  RH WIND       PRES   REMARKS
LA GUARDIA NY  MOCLDY    77  67  71 SW5       30.00S
RALEIGH NC     RAIN      69  67  93 CALM      30.11F FOG
ATLANTA GA     CLOUDY    67  65  93 E7        30.09S
NEW ORLEANS LA PTCLDY    76  69  79 CALM      30.00S
OKLAHOMA CITY  PTCLDY    68  64  87 S6        29.95S
ALBUQUERQUE NM CLEAR     68  48  48 E7        30.14R
SALT LAKE CITY MOCLDY    66  44  45 NE9       30.03R
LOS ANGELES CA FAIR      69  64  84 SE5       29.84S
BOISE ID       FAIR      57  44  62 CALM      30.06R
SEATTLE WA     CLOUDY    63  49  60 S14       29.98F
$$

*** WEATHER ACROSS MANITOBA...SASKATCHEWAN AND ONTARIO ***
                ***ONTARIO***

CITY           SKY/WX    TMP DP  RH WIND       PRES   REMARKS
GERALDTON      FOG       61  61 100 E5        29.89S VSB 1/2
THUNDER BAY    MOCLDY    57  55  94 NE6       29.87R
SIOUX LOOKOUT  MOCLDY    66  64  94 S8        29.74S
TORONTO        PTCLDY    64  63  94 W5        30.00S
BIG TROUT LK   CLOUDY    50  48  93 SE9G17    29.81F
PICKLE LAKE    NOT AVBL
DRYDEN         CLEAR     68  63  83 S12       29.72F
KENORA         PTCLDY    68  64  88 S9        29.68F
$$
                *** MANITOBA***

CITY           SKY/WX    TMP DP  RH WIND       PRES   REMARKS
BRANDON        LGT RAIN  61  57  88 VRB2      29.67F
DAUPHIN        PTCLDY    64  55  72 SW7       29.60R
ISLAND LAKE    CLOUDY    63  59  88 SE12G17   29.54F
PILOT MOUND      N/A     64  59  82 N9          N/A
THE PAS        PTCLDY    57  55  94 SE8       29.49F
THOMPSON       DRIZZLE   55  55 100 VRB2      29.57F
WINNIPEG       LGT RAIN  68  68 100 S5        29.60F
LYNN LAKE      FOG       57  57 100 MISG      29.50F VSB 3/4
CHURCHILL      LGT RAIN  46  45  93 SE18      29.79F
$$
                ***SASKATCHEWAN***

CITY           SKY/WX    TMP DP  RH WIND       PRES   REMARKS
ESTEVAN        CLOUDY    61  57  88 W17       29.77R
KINDERSLEY     PTCLDY    52  39  62 W17       29.57F
LLOYDMINSTER   CLEAR     54  45  71 W10       29.51R
PRINCE ALBERT  CLOUDY    57  45  62 SW8       29.50F
REGINA         LGT RAIN  57  54  88 SW15      29.71F
YORKTON        MOCLDY    63  52  67 SW15G21   29.61R



USA.gov is the U.S. government's official web portal to all federal, state and local government web resources and services.